User: anonymous   Login
Location: Peebles
(55.6412°N, 3.1714°W)
Time: 16:44:15
(UTC+01:00)
Language:

Cosmos 1867 - Orbit

View from above orbital plane
View from above orbital plane
View from above satellite
View from above satellite

Ground track
Ground track

The orbit data is extracted from the following two-line orbital elements,

1 18187U 87060A   22147.53166708 -.00000042  00000-0  22128-4 0  9994
2 18187  65.0103 216.1908 0018515 258.8459 101.0544 14.31144869822345
Epoch (UTC): 27 May 2022 12:45:36
Eccentricity: 0.0018515
inclination: 65.0103°
perigee height: 774 km
apogee height: 801 km
right ascension of ascending node: 216.1908°
argument of perigee: 258.8459°
revolutions per day: 14.31144869
mean anomaly at epoch: 101.0544°
orbit number at epoch: 82234

The dashed part of the orbit path shows where the satellite is in the earth's shadow,  

DLR